Regional Weather Roundup
Issued by NWS Midland/Odessa, TX

Skip options and go directly to product.
Home | Oldest Version | Previous Version | Current Version | All | Text Only | Save Text | Print | Product List | Glossary Off

Skip product version selection by date and time.   

650
ASUS44 KMAF 300910
RWRMAF
MIDLAND AREA WEATHER ROUNDUP
NATIONAL WEATHER SERVICE MIDLAND TX
400 AM CDT TUE SEP 30 2014

...IN SOUTHWEST TEXAS AND SOUTHEAST NEW MEXICO...

CITY           SKY/WX    TMP DP  RH WIND       PRES   REMARKS
ALPINE         MOCLDY    61  55  82 W6        30.06S
ANDREWS        FAIR      64  58  83 SE7       29.93F
ARTESIA        NOT AVBL
BIG SPRING     PTCLDY    66  56  71 SE8       29.95F
CARLSBAD       CLEAR     66  59  78 SE13      29.87F
DRYDEN           N/A     67  63  87 N6        29.90F
FORT STOCKTON  PTCLDY    67  59  75 S12       29.91F
GUAD PASS      PTCLDY    64  56  75 W10       30.04F
HOBBS          PTCLDY    63  59  88 S10       29.94F
MARFA          MOCLDY    55  54  94 NW6       30.06S
MIDLAND AIRPK  CLEAR     67  59  76 S5        29.93S
MIDLAND INTL   CLEAR     66  59  78 SE8       29.92F
ODESSA         CLEAR     67  59  75 S10       29.93F
PECOS          CLOUDY    65  59  80 NE3       29.88S
PRESIDIO       FAIR      72  60  65 N7        29.91F
SEMINOLE       PTCLDY    63  58  84 SE6       29.94F
SNYDER         PTCLDY    65  58  75 S7        29.93F
WINK           PTCLDY    67  60  78 SE9       29.89F
$$
...OTHER STATIONS IN TEXAS...

CITY           SKY/WX    TMP DP  RH WIND       PRES   REMARKS
ABILENE        PTCLDY    68  55  63 S9        29.92F
AMARILLO       PTCLDY    63  57  81 S17       29.92F
AUSTIN         PTCLDY    65  63  93 CALM      29.89F
BROWNSVILLE    PTCLDY    74  74 100 CALM      29.82F
CORPUS CHRISTI MOCLDY    74  73  97 NW8       29.84F
DALLAS FTW     MOCLDY    73  65  75 CALM      29.90S
DEL RIO        CLEAR     72  66  81 E5        29.88S
EL PASO        PTCLDY    74  55  51 W10       29.93S
HOUSTON INT    PTCLDY    72  71  97 N3        29.87S
LUBBOCK        PTCLDY    64  57  78 S10       29.94F
SAN ANGELO     CLEAR     67  60  78 S5        29.91F
SAN ANTONIO    CLEAR     68  63  84 NW5       29.90F
WACO           CLEAR     66  62  87 CALM      29.90S
WICHITA FALLS  NOT AVBL
$$
...OTHER LOCATIONS IN NEW MEXICO...

CITY           SKY/WX    TMP DP  RH WIND       PRES   REMARKS
ALAMAGORDO     CLEAR     63  55  77 S6        29.95S
ALBUQUERQUE    CLEAR     54  36  50 NW5       30.05S
CANNON AFB     NOT AVBL
CLOVIS           N/A     57  54  88 W6        29.99R
HOLLOMAN AFB   CLEAR     67  57  72 S8        29.92S
ROSWELL        CLEAR     62  58  86 SE8       29.89F
RUIDOSO        CLEAR     55  48  76 NE3       30.10F
SANTA FE       CLEAR     46  34  62 N7        30.07S
TRUTH OR CONSE CLEAR     62  44  51 NW10      29.99R
TUCUMCARI      CLEAR     62  56  80 S7        29.91F
$$

USA.gov is the U.S. government's official web portal to all federal, state and local government web resources and services.